CW7492 Weather Reports


time (UTC)temp
C
wind
direction
speed
KPH
gust
KPH
rain 1hr
cm
rain 24hr
cm
rain mn
cm
humidity
%
barometer
mb
20260510005301 10 205 6.4 12.9 0.00 0.97 0.97 96 1007.4
20260509235301 10 223 0.0 8.0 0.00 0.97 0.97 95 1007.1
20260509225300 11 183 0.0 14.5 0.00 0.97 0.97 96 1006.8
20260509215259 11 213 3.2 12.9 0.13 0.97 0.97 96 1006.8
20260509205259 11 221 0.0 12.9 0.00 0.84 0.84 97 1007.3
20260509195258 10 196 3.2 9.7 0.03 0.84 0.84 97 1007.7
20260509175256 10 194 3.2 12.9 0.00 0.69 0.69 96 1008.0
20260509165255 10 209 1.6 12.9 0.00 0.69 0.69 97 1008.0
20260509155255 9 166 1.6 14.5 0.03 0.69 0.69 97 1008.3
20260509145254 9 152 9.7 17.7 0.05 0.66 0.66 97 1009.0
20260509135254 8 156 0.0 9.7 0.08 0.61 0.61 97 1009.0
20260509125253 8 166 0.0 9.7 0.18 0.53 0.53 97 1009.5
20260509115252 8 181 1.6 14.5 0.10 0.36 0.36 97 1009.7
20260509105252 7 145 4.8 12.9 0.18 0.25 0.25 97 1009.5
20260509085251 7 180 0.0 8.0 0.03 0.08 0.08 96 1009.8
20260509075250 7 241 1.6 8.0 0.00 0.05 0.05 95 1010.5
20260509065250 7 201 0.0 4.8 0.05 0.05 0.05 94 1010.2
20260509045318 7 118 0.0 3.2 0.00 0.00 0.00 81 1010.8
20260509035317 7 118 0.0 4.8 0.00 0.00 0.00 78 1011.0
20260509025316 7 121 0.0 8.0 0.00 0.00 0.00 80 1011.2
20260509015315 8 161 1.6 4.8 0.00 0.00 0.00 72 1011.0